Tracking 31032 objects as of 14-Jul-2025
HD Live streaming from Space Station
objects crossing your sky now

STARLINK-2616

Track STARLINK-2616 now!
10-day predictions
STARLINK-2616 is classified as:


NORAD ID: 48695
Int'l Code: 2021-044BK
Perigee: 553.1 km
Apogee: 555.7 km
Inclination: 53.1 °
Period: 95.6 minutes
Semi major axis: 6925 km
RCS: Unknown
Launch date: May 26, 2021
Source: United States (US)
Launch site: AIR FORCE EASTERN TEST RANGE (AFETR)
Your satellite tracking list
Your tracking list is empty




NASA's NSSDC Master Catalog

Two Line Element Set (TLE):
1 48695U 21044BK  25194.93902590 -.00000640  00000-0 -24072-4 0  9992
2 48695  53.0543  78.4613 0001900  85.4139 274.7066 15.06394054228217
Source of the keplerian elements: AFSPC